When you browse on this site, cookies collect data to enhance your experience and personalize the content and advertising you see.
Visit our Privacy Policy to learn more. By continuing to use the site, you agree to this use of cookies and data.
  • In Austria
  • List of Countries
  • For 7 days
  • Water Temperature
  • Satellite Maps
  • Weather Map
  • News
  • Weather Widgets
  • user-avatar
    Login

    Hourly Weather Bramki

    Today, 21 February, Thursday

    Time Temperature Precipitation Wind Pressure Humidity
    00:00 +1°C° 0 mm 4 mps 758 mmHg 86%
    01:00 +1°C° 0 mm 3 mps 758 mmHg 90%
    02:00 +2°C° 0 mm 3 mps 758 mmHg 90%
    03:00 +2°C° 0 mm 3 mps 758 mmHg 91%
    04:00 +2°C° 0 mm 3 mps 758 mmHg 91%
    05:00 +2°C° 0 mm 3 mps 758 mmHg 91%
    06:00 +2°C° 0 mm 3 mps 758 mmHg 92%
    07:00 +3°C° 0 mm 3 mps 758 mmHg 93%
    08:00 +3°C° 0.1 mm 4 mps 758 mmHg 92%
    09:00 +4°C° 0.1 mm 4 mps 758 mmHg 90%
    10:00 +4°C° 0.1 mm 4 mps 758 mmHg 89%
    11:00 +5°C° 0.6 mm 5 mps 757 mmHg 88%
    12:00 +5°C° 0.6 mm 5 mps 757 mmHg 86%
    13:00 +3°C° 0 mm 5 mps 757 mmHg 88%
    14:00 +3°C° 0.9 mm 5 mps 756 mmHg 89%
    15:00 +3°C° 0.9 mm 5 mps 756 mmHg 89%
    16:00 +3°C° 0.9 mm 5 mps 756 mmHg 89%
    17:00 +3°C° 0.8 mm 5 mps 756 mmHg 90%
    18:00 +4°C° 0.8 mm 4 mps 756 mmHg 91%
    19:00 +4°C° 0.8 mm 4 mps 756 mmHg 92%
    20:00 +4°C° 0.5 mm 4 mps 756 mmHg 93%
    21:00 +3°C° 0.5 mm 4 mps 756 mmHg 93%
    22:00 +3°C° 0.5 mm 3 mps 756 mmHg 93%
    23:00 +1°C° 0.7 mm 5 mps 756 mmHg 91%

    Tomorrow, 22 February, Friday

    Time Temperature Precipitation Wind Pressure Humidity
    00:00 -2°C° 0.7 mm 6 mps 757 mmHg 89%
    01:00 -3°C° 0.7 mm 7 mps 757 mmHg 86%
    02:00 -3°C° 0.1 mm 6 mps 758 mmHg 81%
    03:00 -4°C° 0.1 mm 6 mps 759 mmHg 76%
    04:00 -4°C° 0.1 mm 6 mps 760 mmHg 71%
    05:00 -5°C° 0 mm 6 mps 762 mmHg 69%
    06:00 -6°C° 0 mm 6 mps 763 mmHg 67%
    07:00 -6°C° 0 mm 6 mps 764 mmHg 65%
    08:00 -6°C° 0 mm 6 mps 766 mmHg 60%
    09:00 -6°C° 0 mm 6 mps 767 mmHg 54%
    10:00 -5°C° 0 mm 6 mps 768 mmHg 49%
    11:00 -5°C° 0 mm 6 mps 768 mmHg 47%
    12:00 -5°C° 0 mm 5 mps 769 mmHg 46%
    13:00 -4°C° 0 mm 5 mps 769 mmHg 44%
    14:00 -4°C° 0 mm 5 mps 770 mmHg 44%
    15:00 -4°C° 0 mm 5 mps 770 mmHg 44%
    16:00 -5°C° 0 mm 5 mps 770 mmHg 44%
    17:00 -4°C° 0 mm 4 mps 771 mmHg 46%
    18:00 -4°C° 0 mm 4 mps 771 mmHg 48%
    19:00 -5°C° 0 mm 4 mps 772 mmHg 50%
    20:00 -5°C° 0 mm 4 mps 772 mmHg 49%
    21:00 -5°C° 0 mm 3 mps 773 mmHg 48%
    22:00 -5°C° 0 mm 3 mps 773 mmHg 46%
    23:00 -5°C° 0 mm 3 mps 774 mmHg 47%

    Day after tomorrow, 23 February, Saturday

    Time Temperature Precipitation Wind Pressure Humidity
    00:00 -5°C° 0 mm 3 mps 774 mmHg 48%
    01:00 -5°C° 0 mm 3 mps 774 mmHg 49%
    02:00 -4°C° 0 mm 2 mps 774 mmHg 51%
    03:00 -5°C° 0 mm 2 mps 774 mmHg 52%
    04:00 -5°C° 0 mm 2 mps 774 mmHg 54%
    05:00 -5°C° 0 mm 2 mps 774 mmHg 55%
    06:00 -5°C° 0 mm 2 mps 774 mmHg 55%
    07:00 -5°C° 0 mm 2 mps 774 mmHg 56%
    08:00 -2°C° 0 mm 1 mps 775 mmHg 51%
    09:00 -2°C° 0 mm 1 mps 775 mmHg 46%
    10:00 -1°C° 0 mm 1 mps 775 mmHg 41%
    11:00 0°C° 0 mm 1 mps 775 mmHg 38%
    12:00 0°C° 0 mm 1 mps 774 mmHg 35%
    13:00 +1°C° 0 mm 1 mps 774 mmHg 33%
    14:00 +1°C° 0 mm 1 mps 774 mmHg 34%
    15:00 +1°C° 0 mm 1 mps 773 mmHg 36%
    16:00 +1°C° 0 mm 1 mps 773 mmHg 38%
    17:00 0°C° 0 mm 1 mps 773 mmHg 41%
    18:00 0°C° 0 mm 1 mps 773 mmHg 43%
    19:00 -1°C° 0 mm 1 mps 773 mmHg 46%
    20:00 -1°C° 0 mm 1 mps 773 mmHg 46%
    21:00 -2°C° 0 mm 2 mps 773 mmHg 46%
    22:00 -2°C° 0 mm 2 mps 773 mmHg 46%
    23:00 -2°C° 0 mm 2 mps 772 mmHg 45%

    24 February, Sunday

    Time Temperature Precipitation Wind Pressure Humidity
    00:00 -2°C° 0 mm 2 mps 772 mmHg 44%
    01:00 -2°C° 0 mm 2 mps 772 mmHg 44%
    02:00 -2°C° 0 mm 3 mps 771 mmHg 44%
    03:00 -2°C° 0 mm 3 mps 771 mmHg 44%
    04:00 -2°C° 0 mm 3 mps 771 mmHg 44%
    05:00 -2°C° 0 mm 3 mps 770 mmHg 44%
    06:00 -2°C° 0 mm 3 mps 770 mmHg 43%
    07:00 -1°C° 0 mm 3 mps 770 mmHg 43%
    08:00 -2°C° 0 mm 4 mps 770 mmHg 41%
    09:00 -1°C° 0 mm 4 mps 770 mmHg 39%
    10:00 0°C° 0 mm 4 mps 770 mmHg 38%
    11:00 +1°C° 0 mm 4 mps 769 mmHg 38%
    12:00 +1°C° 0 mm 4 mps 769 mmHg 39%
    13:00 +3°C° 0 mm 3 mps 769 mmHg 40%
    14:00 +3°C° 0 mm 3 mps 769 mmHg 46%
    15:00 +4°C° 0 mm 2 mps 769 mmHg 51%
    16:00 +3°C° 0 mm 2 mps 769 mmHg 56%
    17:00 +2°C° 0 mm 2 mps 769 mmHg 60%
    18:00 +2°C° 0 mm 2 mps 769 mmHg 64%
    19:00 +1°C° 0 mm 2 mps 769 mmHg 68%
    20:00 +1°C° 0 mm 2 mps 769 mmHg 70%
    21:00 +1°C° 0 mm 2 mps 769 mmHg 73%
    22:00 0°C° 0 mm 3 mps 769 mmHg 75%
    23:00 -1°C° 0 mm 3 mps 769 mmHg 79%

    25 February, Monday

    Time Temperature Precipitation Wind Pressure Humidity
    00:00 -1°C° 0 mm 3 mps 769 mmHg 83%
    01:00 -1°C° 0 mm 3 mps 769 mmHg 87%
    02:00 -1°C° 0 mm 3 mps 768 mmHg 88%
    03:00 -1°C° 0 mm 3 mps 768 mmHg 89%
    04:00 -1°C° 0 mm 3 mps 768 mmHg 91%
    05:00 -1°C° 0 mm 3 mps 768 mmHg 91%
    06:00 -1°C° 0 mm 3 mps 769 mmHg 92%
    07:00 -1°C° 0 mm 3 mps 769 mmHg 92%
    08:00 0°C° 0 mm 3 mps 769 mmHg 90%
    09:00 +2°C° 0 mm 3 mps 769 mmHg 88%
    10:00 +3°C° 0 mm 3 mps 769 mmHg 85%
    11:00 +3°C° 0 mm 3 mps 769 mmHg 86%
    12:00 +3°C° 0 mm 3 mps 769 mmHg 87%
    13:00 +3°C° 0 mm 3 mps 769 mmHg 88%
    14:00 +3°C° 0 mm 3 mps 768 mmHg 89%
    15:00 +3°C° 0 mm 3 mps 768 mmHg 89%
    16:00 +4°C° 0 mm 2 mps 768 mmHg 90%
    17:00 +3°C° 0 mm 2 mps 768 mmHg 91%
    18:00 +3°C° 0 mm 2 mps 768 mmHg 93%
    19:00 +2°C° 0 mm 2 mps 768 mmHg 95%
    20:00 +2°C° 0 mm 2 mps 767 mmHg 94%
    21:00 +2°C° 0 mm 2 mps 767 mmHg 94%
    22:00 +1°C° 0 mm 3 mps 767 mmHg 94%
    23:00 +1°C° 0 mm 3 mps 766 mmHg 93%

    26 February, Tuesday

    Time Temperature Precipitation Wind Pressure Humidity
    00:00 +1°C° 0 mm 3 mps 766 mmHg 91%
    01:00 0°C° 0 mm 4 mps 765 mmHg 90%
    02:00 0°C° 0 mm 4 mps 765 mmHg 89%
    03:00 0°C° 0 mm 4 mps 764 mmHg 88%
    04:00 0°C° 0 mm 4 mps 764 mmHg 87%
    05:00 -1°C° 0 mm 4 mps 763 mmHg 89%
    06:00 0°C° 0 mm 3 mps 763 mmHg 90%
    07:00 0°C° 0 mm 3 mps 762 mmHg 91%
    08:00 +1°C° 0 mm 3 mps 762 mmHg 85%
    09:00 +3°C° 0 mm 4 mps 762 mmHg 79%
    10:00 +4°C° 0 mm 4 mps 762 mmHg 74%
    11:00 +5°C° 0 mm 4 mps 761 mmHg 71%
    12:00 +6°C° 0 mm 4 mps 761 mmHg 69%
    13:00 +7°C° 0 mm 4 mps 761 mmHg 66%
    14:00 +7°C° 0 mm 4 mps 760 mmHg 69%
    15:00 +6°C° 0 mm 4 mps 760 mmHg 71%
    16:00 +6°C° 0 mm 4 mps 760 mmHg 74%
    17:00 +6°C° 0 mm 4 mps 760 mmHg 78%
    18:00 +5°C° 0 mm 4 mps 760 mmHg 83%
    19:00 +4°C° 0 mm 4 mps 760 mmHg 87%
    20:00 +2°C° 0 mm 5 mps 760 mmHg 87%
    21:00 +2°C° 0 mm 5 mps 760 mmHg 88%
    22:00 +1°C° 0 mm 5 mps 761 mmHg 88%
    23:00 +1°C° 0 mm 4 mps 761 mmHg 87%
    Show more